This demonstration page uses our WeatherBlox Daily Observations layout. Learn more.

Left ArrowRight Arrow

Hourly Observations for January 17, 2018

Temp ( °F °C ) Dew Point ( °F °C ) Humidity (%) Winds ( mph kmh ) Pressure ( in mb ) Visibility ( mi km ) Precip ( " mm )
12:15 am 00:15 Cloudy 32 0 32 0 100 100 NNW 8 13 30.39 1029 10 16.0934 0 0
12:35 am 00:35 Cloudy 32 0 32 0 100 100 N 7 11 30.39 1029 7 11.26538 0 0
12:55 am 00:55 Cloudy 32 0 30 -1 93 93 N 8 13 30.36 1028 10 16.0934 0 0
1:15 am 01:15 Cloudy 32 0 30 -1 93 93 NNW 12 19 30.36 1028 10 16.0934 0 0
1:35 am 01:35 Cloudy 32 0 30 -1 93 93 N 10 17 30.36 1028 10 16.0934 0 0
1:55 am 01:55 Cloudy 32 0 30 -1 93 93 N 10 17 30.36 1028 10 16.0934 0 0
2:15 am 02:15 Cloudy 32 0 28 -2 87 87 N 12 19 30.36 1028 10 16.0934 0 0
2:35 am 02:35 Cloudy with Light Snow 32 0 28 -2 87 87 N 12 19 30.39 1029 7 11.26538 0 0
2:55 am 02:55 Cloudy 32 0 28 -2 87 87 N 8 13 30.39 1029 10 16.0934 0 0
3:15 am 03:15 Cloudy 32 0 28 -2 87 87 N 14 22 30.39 1029 7 11.26538 0 0
3:35 am 03:35 Cloudy 30 -1 28 -2 93 93 N 10 17 30.39 1029 7 11.26538 0 0
3:55 am 03:55 Cloudy with Light Snow 30 -1 27 -3 86 86 N 12 19 30.39 1029 5 8.0467 0 0
4:15 am 04:15 Cloudy with Light Snow 28 -2 27 -3 93 93 N 12 19 30.39 1029 4 6.43736 0 0
4:35 am 04:35 Cloudy 28 -2 25 -4 86 86 N 9 15 30.39 1029 10 16.0934 0 0
4:55 am 04:55 Cloudy 28 -2 23 -5 80 80 N 10 17 30.39 1029 10 16.0934 0 0
5:15 am 05:15 Cloudy with Light Snow 27 -3 21 -6 80 80 N 10 17 30.42 1030 10 16.0934 0 0
5:35 am 05:35 Cloudy 27 -3 21 -6 80 80 N 13 20 30.42 1030 10 16.0934 0 0
5:55 am 05:55 Cloudy 27 -3 21 -6 80 80 N 12 19 30.42 1030 10 16.0934 0 0
6:15 am 06:15 Cloudy with Light Snow 27 -3 19 -7 74 74 N 16 26 30.42 1030 7 11.26538 0 0
6:35 am 06:35 Cloudy with Light Snow 25 -4 19 -7 80 80 N 13 20 30.42 1030 7 11.26538 0 0
6:55 am 06:55 Cloudy with Light Snow 25 -4 19 -7 80 80 N 13 20 30.42 1030 5 8.0467 0 0
7:15 am 07:15 Cloudy 25 -4 19 -7 80 80 N 14 22 30.42 1030 10 16.0934 0 0
7:35 am 07:35 Cloudy 25 -4 18 -8 74 74 N 14 22 30.42 1030 10 16.0934 0 0
7:55 am 07:55 Cloudy 25 -4 16 -9 69 69 N 12 19 30.45 1031 10 16.0934 0 0
8:15 am 08:15 Cloudy 23 -5 14 -10 68 68 N 13 20 30.48 1032 10 16.0934 0 0
8:35 am 08:35 Cloudy 23 -5 14 -10 68 68 N 13 20 30.48 1032 10 16.0934 0 0
8:55 am 08:55 Cloudy 23 -5 14 -10 68 68 N 14 22 30.48 1032 10 16.0934 0 0
9:15 am 09:15 Cloudy 23 -5 14 -10 68 68 N 14 22 30.48 1032 10 16.0934 0 0
9:35 am 09:35 Cloudy 23 -5 12 -11 63 63 NNW 17 28 30.5 1033 10 16.0934 0 0
9:55 am 09:55 Cloudy 23 -5 12 -11 63 63 NNW 17 28 30.5 1033 10 16.0934 0 0
10:15 am 10:15 Mostly Cloudy 25 -4 12 -11 59 59 NNW 16 26 30.48 1032 10 16.0934 0 0
10:35 am 10:35 Partly Cloudy 25 -4 12 -11 59 59 NNW 14 22 30.48 1032 10 16.0934 0 0
10:55 am 10:55 Mostly Cloudy 25 -4 14 -10 63 63 N 14 22 30.45 1031 10 16.0934 0 0
11:15 am 11:15 Mostly Cloudy 25 -4 12 -11 59 59 N 15 24 30.45 1031 10 16.0934 0 0
11:35 am 11:35 Mostly Cloudy 25 -4 12 -11 59 59 N 13 20 30.45 1031 10 16.0934 0 0
11:55 am 11:55 Partly Cloudy 25 -4 12 -11 59 59 N 15 24 30.42 1030 10 16.0934 0 0
12:15 pm 12:15 Partly Cloudy 25 -4 12 -11 59 59 N 13 20 30.42 1030 10 16.0934 0 0
12:35 pm 12:35 Partly Cloudy 25 -4 12 -11 59 59 NNW 15 24 30.42 1030 10 16.0934 0 0
12:55 pm 12:55 Sunny 25 -4 12 -11 59 59 NNW 13 20 30.39 1029 10 16.0934 0 0
1:15 pm 13:15 Sunny 23 -5 10 -12 58 58 NNW 17 28 30.39 1029 10 16.0934 0 0
1:35 pm 13:35 Sunny 23 -5 10 -12 58 58 NNW 18 30 30.39 1029 10 16.0934 0 0
1:55 pm 13:55 Sunny 25 -4 10 -12 54 54 N 14 22 30.39 1029 10 16.0934 0 0
2:15 pm 14:15 Sunny 25 -4 10 -12 54 54 N 14 22 30.36 1028 10 16.0934 0 0
2:35 pm 14:35 Sunny 27 -3 10 -12 50 50 NNW 13 20 30.39 1029 10 16.0934 0 0
2:55 pm 14:55 Sunny 25 -4 10 -12 54 54 N 14 22 30.39 1029 10 16.0934 0 0
3:15 pm 15:15 Partly Cloudy 25 -4 10 -12 54 54 N 8 13 30.39 1029 10 16.0934 0 0
3:35 pm 15:35 Sunny 25 -4 10 -12 54 54 N 12 19 30.36 1028 10 16.0934 0 0
3:55 pm 15:55 Sunny 27 -3 10 -12 50 50 N 10 17 30.36 1028 10 16.0934 0 0
4:15 pm 16:15 Sunny 27 -3 10 -12 50 50 N 8 13 30.36 1028 10 16.0934 0 0
4:35 pm 16:35 Sunny 27 -3 10 -12 50 50 N 12 19 30.36 1028 10 16.0934 0 0
4:55 pm 16:55 Sunny 27 -3 10 -12 50 50 N 9 15 30.36 1028 10 16.0934 0 0
5:15 pm 17:15 Clear 25 -4 10 -12 54 54 NNW 9 15 30.36 1028 10 16.0934 0 0
5:35 pm 17:35 Clear 25 -4 10 -12 54 54 N 8 13 30.36 1028 10 16.0934 0 0
5:55 pm 17:55 Clear 23 -5 10 -12 58 58 NNW 9 15 30.36 1028 10 16.0934 0 0
6:15 pm 18:15 Clear 23 -5 10 -12 58 58 N 9 15 30.36 1028 10 16.0934 0 0
6:35 pm 18:35 Clear 23 -5 10 -12 58 58 N 15 24 30.36 1028 10 16.0934 0 0
6:55 pm 18:55 Clear 23 -5 10 -12 58 58 N 12 19 30.36 1028 10 16.0934 0 0
7:15 pm 19:15 Clear 23 -5 10 -12 58 58 N 8 13 30.36 1028 10 16.0934 0 0
7:35 pm 19:35 Clear 23 -5 10 -12 58 58 NNW 8 13 30.36 1028 10 16.0934 0 0
7:55 pm 19:55 Clear 23 -5 10 -12 58 58 NNW 15 24 30.36 1028 10 16.0934 0 0
8:15 pm 20:15 Clear 23 -5 10 -12 58 58 NNW 12 19 30.36 1028 10 16.0934 0 0
8:35 pm 20:35 Clear 21 -6 10 -12 63 63 NNW 14 22 30.39 1029 10 16.0934 0 0
8:55 pm 20:55 Clear 21 -6 10 -12 63 63 NNW 18 30 30.39 1029 10 16.0934 0 0
9:15 pm 21:15 Partly Cloudy 21 -6 10 -12 63 63 NNW 13 20 30.39 1029 10 16.0934 0 0
9:35 pm 21:35 Mostly Cloudy 21 -6 10 -12 63 63 NNW 14 22 30.39 1029 10 16.0934 0 0
9:55 pm 21:55 Cloudy 21 -6 10 -12 63 63 NNW 12 19 30.39 1029 10 16.0934 0 0
10:15 pm 22:15 Cloudy 21 -6 9 -13 58 58 N 12 19 30.39 1029 10 16.0934 0 0
10:35 pm 22:35 Cloudy 21 -6 9 -13 58 58 NNW 13 20 30.33 1027 10 16.0934 0 0
10:55 pm 22:55 Cloudy 19 -7 9 -13 63 63 NNW 13 20 30.36 1028 10 16.0934 0 0
11:15 pm 23:15 Partly Cloudy 19 -7 10 -12 68 68 NW 12 19 30.36 1028 10 16.0934 0 0
11:35 pm 23:35 Mostly Cloudy 19 -7 10 -12 68 68 NW 7 11 30.36 1028 10 16.0934 0 0
11:55 pm 23:55 Partly Cloudy 19 -7 10 -12 68 68 NNW 10 17 30.36 1028 10 16.0934 0 0

Powered by AerisWeather